Home   Weather   Panama   Past weeks
Flag for Panama

Past Weather in Panama, Panama — Yesterday and Last 2 Weeks

Now
77 °F

Passing clouds.


Feels Like: 79 °F
Forecast: 89 / 75 °F
Wind: 8 mph from North

Location: Panama Airport

Current Time: Jan 18, 2019 at 2:43:36 am

Latest Report: Jan 18, 2019 at 2:00 am


Visibility: N/A

Pressure: 29.89 "Hg

Humidity: 74%

Dew Point: 68 °F

Location of PanamaLocation

Past Weather in Panama — Graph

°F

Panama Temperature Yesterday

Maximum temperature yesterday: 88 °F (at 2:00 pm)
Minimum temperature yesterday: 73 °F (at 2:00 am)
Average temperature yesterday: 80 °F

High & Low Weather Summary for the Past Weeks

 TemperatureHumidityPressure
High91 °F (Jan 4, 12:00 pm)100% (Jan 4, 4:00 am)29.98 "Hg (Jan 4, 4:00 am)
Low66 °F (Jan 12, 1:00 am)41% (Jan 16, 2:00 pm)29.74 "Hg (Jan 3, 4:00 am)
Average80 °F72%29.88 "Hg
* Reported Jan 3 1:00 am — Jan 18 1:00 am, Panama. Weather by CustomWeather, © 2019

Note: Actual official high and low records may vary slightly from our data, if they occured in-between our weather recording intervals... More about our weather records

Advertising

Panama Weather History for the Previous 24 Hours

Scroll right to see more
 ConditionsComfort  
Time TempWeatherWind HumidityBarometerVisibility
1:00 am
Fri, Jan 18
77 °FPassing clouds.9 mph79%29.92 "HgN/A
12:00 am77 °FPassing clouds.8 mph79%29.92 "HgN/A
11:00 pm
Thu, Jan 17
77 °FPassing clouds.5 mph83%29.92 "HgN/A
10:00 pm79 °FPassing clouds.9 mph70%29.89 "HgN/A
9:00 pm79 °FPassing clouds.8 mph74%29.89 "HgN/A
8:00 pm79 °FPassing clouds.6 mph74%29.89 "HgN/A
7:00 pm81 °FPassing clouds.10 mph70%29.86 "HgN/A
6:00 pm82 °FScattered showers. Scattered clouds.6 mph62%29.86 "Hg6 mi
5:00 pm84 °FScattered clouds.12 mph58%29.86 "HgN/A
4:00 pm88 °FScattered clouds.16 mph52%29.86 "HgN/A
3:00 pm88 °FScattered clouds.18 mph49%29.86 "HgN/A
2:00 pm88 °FScattered clouds.16 mph52%29.89 "HgN/A
1:00 pm86 °FScattered clouds.14 mph52%29.92 "HgN/A
12:00 pm86 °FScattered clouds.12 mph52%29.95 "HgN/A
11:00 am86 °FScattered clouds.17 mph52%29.95 "HgN/A
10:00 am84 °FScattered clouds.13 mph55%29.98 "HgN/A
9:00 am84 °FScattered clouds.9 mph55%29.98 "HgN/A
8:00 am81 °FScattered clouds.7 mph62%29.95 "HgN/A
7:00 am75 °FScattered clouds.8 mph74%29.89 "HgN/A
6:00 am73 °FPassing clouds.5 mph83%29.92 "HgN/A
5:00 am73 °FPassing clouds.5 mph83%29.89 "HgN/A
4:00 am73 °FPassing clouds.5 mph83%29.89 "HgN/A
3:00 am73 °FPassing clouds.3 mph83%29.95 "HgN/A
2:00 am73 °FPassing clouds.5 mph83%29.89 "HgN/A
Weather by CustomWeather, © 2019

See weather overview